CAPE
0 0 0 0 0 0 0 0 0 0 0 0 0 0 0 0 0 0 0 0 0 0 0 0 0 0 0 0 0 0 0 0 0 0 0 0 0 0 0 0 0 0 108 175 154 91 154
0 0 0 0 0 0 0 0 0 0 0 0 0 0 0 0 0 0 0 0 0 0 0 0 0 0 0 0 0 0 0 0 0 0 0 0 0 0 0 0 0 0 6 380 170 106 140
0 0 0 0 0 0 0 0 0 0 0 0 0 0 0 0 0 0 0 0 0 0 0 0 0 0 0 0 0 0 0 0 0 0 0 0 0 0 0 0 0 0 0 0 24 17 10
0 0 0 0 0 0 0 0 0 0 0 0 0 0 0 0 0 0 0 0 0 0 0 0 0 0 0 0 0 0 0 0 0 0 0 0 0 0 0 0 0 0 0 1 66 0 3
0 0 0 0 0 0 0 0 0 0 0 0 0 0 0 0 0 0 0 0 0 0 0 0 0 0 0 0 0 0 0 0 0 0 0 0 0 0 0 0 0 0 0 0 56 28 67
0 0 0 0 0 0 0 0 0 0 0 0 0 0 0 0 0 0 0 0 0 0 0 0 0 0 0 0 0 0 0 0 0 0 0 0 0 0 0 0 0 0 0 0 0 173 171
0 0 0 0 0 0 0 0 0 0 0 0 0 0 0 0 0 0 0 0 0 0 0 0 0 0 0 0 0 0 0 0 0 0 0 0 0 0 0 0 0 0 0 0 19 115 184
0 0 0 0 0 0 0 0 0 0 0 0 0 0 0 0 0 0 0 0 0 0 0 0 0 0 0 0 0 0 0 0 0 0 0 0 0 0 0 0 0 0 0 0 1 16 115
0 0 0 0 0 0 0 0 0 0 0 0 0 0 0 0 0 0 0 0 0 0 0 0 0 0 0 0 0 0 0 0 0 0 0 0 0 0 0 0 0 0 0 0 0 0 0
0 0 0 0 0 0 0 0 0 0 0 0 0 0 0 0 0 0 0 0 0 0 0 0 0 0 0 0 0 0 0 0 0 0 0 0 0 0 0 0 0 0 0 0 0 0 1
0 0 0 0 0 0 0 0 0 0 0 0 0 0 0 0 0 0 0 0 0 0 0 0 0 0 0 0 0 0 0 0 0 0 0 0 0 0 0 0 0 0 0 0 0 0 0
0 0 0 0 0 0 0 0 0 0 0 0 0 0 0 0 0 0 0 0 0 0 0 0 0 0 0 0 0 0 0 0 0 0 0 0 0 0 0 0 0 0 0 0 0 0 0
1 0 0 0 0 0 0 0 0 0 0 0 0 0 0 0 0 0 0 0 0 0 0 0 0 0 0 0 0 0 0 0 0 0 0 0 0 0 0 0 0 0 0 0 0 0 0
0 0 0 0 0 0 0 0 0 0 0 0 0 0 0 0 0 0 0 0 0 0 0 0 0 0 0 0 0 0 0 0 0 0 0 0 0 0 0 0 0 0 0 0 0 0 0
0 0 0 0 0 0 0 0 0 0 0 0 0 0 0 0 0 0 0 0 0 0 0 0 0 0 0 0 0 0 0 0 0 0 0 0 0 0 0 0 0 0 0 0 0 0 0
0 0 0 0 0 0 0 1 1 0 0 0 0 0 0 0 0 0 0 0 0 0 0 0 0 0 0 0 0 0 0 0 0 0 0 0 0 0 0 0 0 0 0 0 0 0 0
0 2 2 1 1 1 2 1 1 1 0 0 0 0 0 0 0 0 0 0 0 0 0 0 0 0 0 0 0 0 0 0 0 0 0 0 0 0 0 0 0 0 0 6 1 0 0
0 2 2 2 1 2 3 2 1 0 0 0 0 0 0 0 0 0 0 0 0 0 0 0 0 0 0 0 0 0 0 0 0 0 0 0 0 0 0 1 0 0 15 0 19 0 0
1 3 1 2 2 4 3 1 2 0 0 0 0 0 0 0 0 0 0 0 0 0 0 0 0 0 0 0 0 0 0 0 0 0 0 0 0 0 0 0 0 0 0 1 12 16 2
2 1 1 3 4 3 2 1 0 0 0 0 0 0 0 0 0 0 0 0 0 0 1 0 0 0 0 0 0 2 0 2 0 0 0 0 0 0 0 0 0 0 0 0 0 9 0
2 4 0 4 4 4 2 0 0 0 0 0 0 0 0 0 0 3 4 2 0 2 0 1 5 7 9 8 7 5 3 0 9 0 0 0 0 0 0 0 0 0 0 0 0 0 1
2 2 2 4 5 5 2 0 0 0 0 0 0 2 1 0 5 6 0 2 0 6 6 3 8 4 0 6 14 6 8 4 14 25 6 14 0 0 0 0 0 0 0 0 0 0 0
3 1 2 3 4 3 1 0 0 0 0 0 2 1 8 0 4 0 1 0 2 11 3 2 11 3 1 0 6 1 22 15 16 3 26 13 6 2 0 0 0 0 0 0 0 0 0
1 1 1 2 3 3 2 1 0 0 0 4 2 3 4 4 3 4 4 7 9 18 10 9 8 4 7 15 9 10 24 16 9 12 11 49 27 17 0 0 0 0 0 0 0 0 0
2 1 0 2 4 5 2 0 0 0 0 9 6 3 2 2 6 9 10 1 1 3 3 3 2 5 16 11 10 10 6 12 2 6 16 10 60 14 10 1 0 9 113 52 98 43 17
2 1 0 3 6 7 4 0 0 0 0 15 13 9 2 2 2 20 7 4 2 2 0 0 0 5 16 17 13 2 9 5 3 15 18 22 35 23 13 4 1 7 0 2 0 71 0
2 0 0 2 3 2 1 0 0 0 0 9 11 14 1 3 6 0 14 3 2 1 2 5 11 11 8 0 2 4 3 4 0 4 20 37 43 17 21 15 2 0 0 1 7 21 0
1 0 0 1 2 1 0 0 0 0 0 3 5 8 9 3 1 9 10 2 10 2 3 6 8 3 1 0 0 6 1 1 1 5 9 21 8 5 12 19 18 0 0 2 1 11 3
0 0 0 1 0 1 1 0 0 0 0 0 0 4 4 0 0 0 2 7 1 12 3 4 13 14 3 0 0 0 0 0 0 7 20 8 9 21 22 15 3 3 3 3 10 14 16
CIN
0 0 0 0 0 0 0 0 0 0 0 0 0 0 0 0 0 0 0 0 0 0 0 0 0 0 0 0 0 0 0 0 0 0 0 0 0 0 0 0 0 0 -2 -14 -26 -33 -10
0 0 0 0 0 0 0 0 0 0 0 0 0 0 0 0 0 0 0 0 0 0 0 0 0 0 0 0 0 0 0 0 0 0 0 0 0 0 0 0 0 0 0 -1 -34 -43 -32
0 0 0 0 0 0 0 0 0 0 0 0 0 0 0 0 0 0 0 0 0 0 0 0 0 0 0 0 0 0 0 0 0 0 0 0 0 0 0 0 0 0 0 -2 -84 -74 -83
0 0 0 0 0 0 0 0 0 0 0 0 0 0 0 0 0 0 0 0 0 0 0 0 0 0 0 0 0 0 0 0 0 0 0 0 0 0 0 0 0 0 0 -17 -21 0 -30
0 0 0 0 0 0 0 0 0 0 0 0 0 0 0 0 0 0 0 0 0 0 0 0 0 0 0 0 0 0 0 0 0 0 0 0 0 0 0 0 0 0 0 0 -22 -92 -52
0 0 0 0 0 0 0 0 0 0 0 0 0 0 0 0 0 0 0 0 0 0 0 0 0 0 0 0 0 0 0 0 0 0 0 0 0 0 0 0 0 0 0 0 0 -6 -4
0 0 0 0 0 0 0 0 0 0 0 0 0 0 0 0 0 0 0 0 0 0 0 0 0 0 0 0 0 0 0 0 0 0 0 0 0 0 0 0 0 0 0 0 -20 -3 -2
0 0 0 0 0 0 0 0 0 0 0 0 0 0 0 0 0 0 0 0 0 0 0 0 0 0 0 0 0 0 0 0 0 0 0 0 0 0 0 0 0 0 0 0 -1 -33 -3
0 0 0 0 0 0 0 0 0 0 0 0 0 0 0 0 0 0 0 0 0 0 0 0 0 0 0 0 0 0 0 0 0 0 0 0 0 0 0 0 0 0 0 0 0 0 0
0 0 0 0 0 0 0 0 0 0 0 0 0 0 0 0 0 0 0 0 0 0 0 0 0 0 0 0 0 0 0 0 0 0 0 0 0 0 0 0 0 0 0 0 0 0 -7
0 0 0 0 0 0 0 0 0 0 0 0 0 0 0 0 0 0 0 0 0 0 0 0 0 0 0 0 0 0 0 0 0 0 0 0 0 0 0 0 0 0 0 0 0 0 0
0 0 0 0 0 0 0 0 0 0 0 0 0 0 0 0 0 0 0 0 0 0 0 0 0 0 0 0 0 0 0 0 0 0 0 0 0 0 0 0 0 0 0 0 0 0 0
0 0 0 0 0 0 0 0 0 0 0 0 0 0 0 0 0 0 0 0 0 0 0 0 0 0 0 0 0 0 0 0 0 0 0 0 0 0 0 0 0 0 0 0 0 0 0
0 0 0 0 0 0 0 0 0 0 0 0 0 0 0 0 0 0 0 0 0 0 0 0 0 0 0 0 0 0 0 0 0 0 0 0 0 0 0 0 0 0 0 0 0 0 0
0 0 0 0 0 0 0 0 0 0 0 0 0 0 0 0 0 0 0 0 0 0 0 0 0 0 0 0 0 0 0 0 0 0 0 0 0 0 0 0 0 0 0 0 0 0 0
0 0 0 0 0 0 -1 -1 0 0 0 0 0 0 0 0 0 0 0 0 0 0 0 0 0 0 0 0 0 0 0 0 0 0 0 0 0 0 0 0 0 0 0 0 0 0 0
0 0 0 0 -1 -1 -1 0 0 0 0 0 0 0 0 0 0 0 0 0 0 0 0 0 0 0 0 0 0 0 0 0 0 0 0 0 0 0 0 0 0 0 0 -8 -4 0 0
0 0 0 0 -1 -1 0 -1 0 0 0 0 0 0 0 0 0 0 0 0 0 0 0 0 0 0 0 0 0 0 0 0 0 0 0 0 0 0 0 -3 0 -2 -9 0 -6 -1 0
0 0 -1 0 0 -1 -2 -2 -4 0 0 0 0 0 0 0 0 0 0 0 0 0 0 0 0 0 0 0 0 -1 0 0 0 0 0 0 0 0 0 0 0 0 -1 -2 -8 -11 -4
0 0 -1 0 -1 -1 -5 -7 -4 0 0 0 0 0 0 0 0 0 0 0 -1 0 -1 -1 0 0 -1 0 0 -3 -2 -6 0 0 0 0 0 0 0 0 0 0 0 0 0 -8 -2
0 0 0 -1 -2 -2 -5 -8 0 0 0 0 0 0 0 0 -1 0 -1 -1 -1 0 0 -1 -2 -2 -3 -2 -2 -5 -5 -2 -3 -1 0 0 0 0 0 0 0 0 0 0 0 0 -4
0 0 -1 -1 -1 -3 -4 0 0 0 0 0 0 -1 -2 0 0 0 0 -1 0 0 0 -1 0 -4 0 0 -2 -3 -7 -7 -5 -5 -4 -2 0 0 0 0 0 0 0 0 0 0 0
0 0 -1 -1 -1 -3 -3 -1 0 0 0 -1 0 -1 0 -1 -1 0 -1 -1 -1 -2 0 -1 0 0 0 -1 -1 0 -1 -1 -2 -4 -2 -3 -3 -2 0 0 0 0 0 0 0 0 0
0 0 -1 -1 -2 -4 -6 -7 0 0 0 -1 -1 -1 -1 0 0 0 -1 0 -1 0 0 0 -1 0 -1 -3 -1 -1 -1 -3 0 -3 -3 -1 -2 -3 -5 0 0 0 0 -1 0 0 0
0 0 -1 -2 -3 -4 -3 -4 0 0 0 0 0 0 0 0 0 0 0 0 0 0 0 -1 -1 -2 -1 -1 -1 -1 -2 -2 -2 -3 -4 -3 -1 -4 -3 -6 0 -6 -12 -18 -9 -4 -4
0 -1 0 -2 -3 -2 0 -1 0 0 0 0 0 0 -1 0 -1 0 0 -4 0 0 0 0 0 0 -1 0 0 0 -1 -3 -4 -21 -7 -3 -4 -2 -4 -3 -3 -68 0 0 0 -7 0
0 0 -1 -3 -4 -6 -9 -2 0 0 0 -1 0 0 0 0 -1 -2 0 0 0 0 0 0 -1 0 0 0 0 0 0 0 0 -3 -2 -3 -1 -1 -2 -2 -3 0 0 0 -5 -7 0
0 0 -1 -3 -4 -7 -4 0 0 0 0 -2 0 0 0 0 -1 0 0 0 -1 0 0 0 0 0 0 0 0 0 0 0 0 -1 -2 -9 -1 -1 -1 -2 -1 0 0 0 0 0 0
0 0 -2 -1 -3 -5 -10 0 0 0 0 0 0 0 0 0 0 0 -1 0 -1 0 0 0 0 0 0 0 0 0 0 0 -1 -3 -2 -3 -2 -3 -2 -7 -1 0 0 0 0 0 0
Wind_Speed
27 27 28 28 29 30 30 31 32 32 32 32 32 32 33 32 31 31 30 29 28 29 26 24 19 17 14 12 15 20 18 7 15 14 13 10 13 9 12 8 15 22 21 13 18 22 16
28 28 28 28 29 30 31 31 32 33 34 34 34 34 34 34 33 31 31 30 29 28 25 20 15 14 14 12 18 20 13 6 11 12 9 6 5 3 15 12 12 14 24 17 16 24 22
29 30 30 31 32 34 35 35 36 36 37 36 36 36 35 35 34 32 32 31 29 24 20 17 16 14 14 13 17 15 11 3 2 8 6 4 16 7 13 11 3 12 18 21 25 27 26
32 32 32 33 34 35 36 37 38 38 38 38 38 38 37 36 35 33 32 30 23 19 17 16 15 16 15 15 17 13 11 5 1 9 4 8 17 17 18 17 15 7 30 29 15 25 24
32 33 34 34 35 36 37 38 38 39 39 39 39 40 39 38 34 33 31 25 18 18 15 16 16 17 16 17 16 13 12 5 1 6 9 8 13 15 17 22 24 8 19 15 9 13 17
33 34 34 35 36 37 38 39 40 40 40 40 40 41 40 38 34 32 29 20 17 17 16 15 16 15 18 18 17 15 10 3 2 5 9 11 17 19 19 17 26 23 28 22 16 12 20
33 34 35 36 37 38 39 40 40 40 40 41 41 41 40 37 32 29 25 18 18 17 19 17 16 15 16 17 17 15 7 9 8 7 15 16 19 20 21 24 30 29 29 31 24 19 24
33 34 35 36 38 39 40 40 40 40 41 41 40 40 40 36 30 25 22 18 19 20 17 16 16 16 16 16 15 17 10 13 11 17 14 19 30 24 27 26 28 29 28 30 26 25 28
32 34 36 38 39 39 39 40 40 40 40 40 40 39 38 33 25 21 21 20 21 18 18 16 16 18 18 17 17 18 16 14 18 22 22 26 24 25 26 28 28 32 33 29 30 26 34
32 33 34 36 38 38 39 40 40 40 40 41 40 39 37 31 19 22 20 24 23 13 20 17 16 18 19 14 16 18 18 17 18 24 25 33 30 24 27 32 29 35 30 33 34 33 34
32 32 34 36 37 38 39 40 40 40 41 41 40 38 34 25 22 21 24 25 16 14 27 17 16 15 16 16 18 18 18 16 21 21 23 28 29 32 32 31 32 36 31 34 36 39 38
32 34 35 36 37 38 38 39 40 40 41 41 41 38 30 17 17 22 24 19 13 18 25 16 16 16 14 16 17 20 19 18 20 24 26 33 27 31 35 35 29 28 33 33 35 40 50
30 32 33 35 36 37 38 39 40 41 41 41 40 35 20 19 20 25 21 14 18 22 16 18 17 16 16 18 18 20 21 21 25 28 31 30 34 32 31 33 31 29 31 35 38 43 57
29 30 31 32 34 36 38 39 40 41 41 41 38 26 17 20 24 20 16 16 21 19 18 16 17 17 20 20 19 21 21 24 21 26 32 33 35 33 30 37 33 37 36 41 45 40 50
29 30 31 32 33 35 37 40 40 40 39 38 31 17 20 25 22 15 16 17 21 18 17 17 18 21 19 19 22 22 23 24 22 23 29 32 37 26 29 34 38 36 48 42 46 42 44
29 30 30 28 26 29 35 39 40 38 36 35 25 17 24 26 20 11 12 16 17 17 18 19 21 20 21 19 23 22 22 20 20 22 23 26 38 30 29 31 40 43 37 45 48 54 56
29 28 24 21 23 24 25 27 39 38 36 31 20 16 21 21 14 11 17 18 17 16 20 20 22 22 22 26 26 28 26 22 23 23 25 27 30 29 30 36 41 42 51 46 45 50 56
27 25 23 27 27 25 25 25 24 36 33 28 22 15 25 23 14 16 16 16 16 17 18 20 21 24 28 28 30 28 28 26 19 22 26 25 29 38 40 29 32 36 41 52 51 56 58
26 25 24 25 24 22 20 21 12 5 23 6 13 20 25 8 16 19 18 18 15 18 17 17 17 19 21 23 25 24 23 20 19 23 24 22 27 36 38 41 40 41 41 45 47 52 60
26 25 24 24 20 16 16 15 12 3 2 12 15 19 22 25 24 21 20 23 21 19 18 19 19 19 20 22 22 23 23 20 21 24 22 25 32 35 40 28 28 38 39 38 46 57 57
25 25 22 19 16 18 18 16 12 5 1 12 14 21 19 23 26 24 21 21 21 22 20 20 18 17 21 23 24 26 27 26 22 21 23 27 36 35 38 39 37 41 46 48 51 50 59
23 24 18 16 20 19 18 14 9 4 3 20 20 20 22 25 24 25 26 25 23 22 20 21 18 24 24 24 24 25 23 21 24 19 24 25 35 34 41 40 41 48 48 50 52 53 55
21 21 17 18 20 20 15 14 13 12 10 21 21 22 21 25 24 23 23 23 22 20 15 8 5 4 4 7 7 23 29 28 24 24 25 28 31 36 43 38 38 48 51 50 53 52 52
19 21 18 19 19 18 17 15 15 17 21 24 24 24 25 28 25 25 21 20 20 16 10 8 8 6 10 15 10 2 5 12 19 24 31 29 32 34 42 37 51 45 43 44 53 53 51
18 19 19 16 16 16 15 17 19 20 22 25 25 25 26 29 27 25 25 23 19 12 13 13 13 8 4 3 5 5 4 12 11 19 12 27 30 32 39 39 41 38 27 33 43 54 43
23 20 16 14 16 17 18 19 21 22 22 24 25 24 26 28 34 27 24 22 20 14 15 15 12 9 10 6 7 7 6 6 10 15 15 13 28 30 28 36 44 32 30 30 33 46 36
23 17 15 16 17 19 21 22 23 23 22 22 24 23 25 29 32 26 27 21 17 15 14 15 17 17 16 12 11 10 10 9 7 8 4 10 21 31 33 35 33 26 31 34 42 39 29
19 16 17 20 20 21 22 22 22 22 21 21 24 21 23 26 30 25 23 19 19 16 14 18 18 20 18 15 14 14 14 13 12 15 14 16 25 28 34 33 35 21 26 32 28 26 26
17 19 19 20 20 20 21 21 21 20 20 19 21 20 19 20 22 18 19 19 18 18 19 20 21 20 18 18 17 15 16 15 17 19 20 25 27 29 28 30 24 24 28 28 26 25 24
Wind_Direction
353 351 349 346 343 340 337 335 332 331 327 324 321 319 317 313 311 311 311 308 304 306 303 316 343 346 338 327 313 305 312 39 130 140 146 146 151 146 154 155 281 264 269 274 246 222 254
348 344 340 337 335 334 332 329 328 327 326 323 321 319 318 315 312 310 310 306 303 310 315 345 3 8 332 317 315 312 325 66 129 138 151 161 244 239 278 288 157 292 259 266 261 232 233
345 344 343 342 341 341 339 335 332 330 328 325 321 319 317 315 314 311 309 310 315 331 343 357 7 354 337 325 326 329 332 330 127 147 166 214 277 254 291 286 264 286 273 262 250 236 237
354 350 347 345 342 340 338 336 333 330 327 325 322 320 318 316 314 312 311 317 342 354 355 358 357 340 337 339 328 338 339 327 266 284 228 277 273 264 275 288 282 274 205 208 253 247 246
355 352 349 347 345 341 337 334 330 329 328 325 324 323 321 318 314 316 316 329 353 0 0 355 339 327 330 341 326 327 321 323 192 299 269 277 277 270 270 267 258 253 261 197 263 259 258
353 350 346 344 342 340 338 335 332 329 329 327 325 323 321 316 313 316 320 338 350 356 351 347 340 333 338 327 333 324 325 351 275 262 279 256 265 266 264 257 253 254 248 258 258 262 252
355 353 350 346 343 338 334 331 330 328 327 327 326 323 322 317 313 320 333 338 338 341 341 333 337 337 335 329 331 335 331 304 287 232 261 259 253 253 259 257 253 258 253 249 252 258 248
359 354 351 346 342 339 335 332 330 328 327 324 323 323 322 319 317 332 341 342 339 326 326 332 326 332 335 331 323 335 320 293 271 258 255 263 258 261 261 259 257 256 253 249 253 250 250
1 356 351 346 342 339 337 335 332 331 328 325 321 319 317 317 325 340 344 342 333 331 319 318 320 319 321 322 318 320 314 298 276 265 256 258 273 260 260 256 255 253 251 252 251 255 247
1 358 354 351 347 343 339 335 332 330 327 327 325 322 319 315 339 339 336 331 326 340 311 311 311 317 320 316 312 323 318 299 284 270 266 263 261 270 255 255 254 254 254 253 253 252 249
0 358 356 352 347 344 342 338 334 332 327 323 322 320 316 331 335 336 328 327 345 334 301 319 319 331 325 309 311 317 315 302 286 279 267 266 262 256 257 258 254 254 258 253 252 249 249
360 356 353 351 348 346 344 341 338 334 329 326 322 317 321 350 346 340 330 339 341 310 296 319 325 322 315 319 315 314 311 304 296 282 274 268 272 263 257 256 259 259 254 254 253 249 245
4 3 0 356 352 347 345 342 339 335 331 326 320 317 345 347 337 328 338 340 312 298 319 316 320 321 315 312 311 312 305 298 286 278 271 269 264 261 261 255 249 247 244 246 246 243 240
8 8 6 4 359 353 347 341 336 332 329 325 318 331 357 342 331 339 344 326 303 314 310 322 322 318 305 311 308 308 303 290 295 285 274 267 264 256 251 249 245 242 243 242 243 246 245
11 11 9 8 6 360 354 344 337 330 325 322 313 2 350 334 331 347 338 316 314 319 323 318 316 306 304 304 303 303 297 291 293 290 274 269 262 270 263 251 246 244 241 245 251 251 250
17 13 13 16 17 12 3 350 337 327 322 322 348 4 348 323 331 7 345 328 329 329 324 316 309 308 300 302 300 300 296 297 293 291 286 278 264 266 258 259 251 248 248 240 243 242 241
19 21 26 27 23 20 19 18 345 332 325 321 16 22 323 300 42 41 334 328 334 342 327 316 308 305 303 297 295 293 293 295 290 289 286 280 268 262 261 250 247 245 242 246 245 243 241
27 27 27 22 20 21 22 23 25 336 325 342 346 27 319 321 30 13 5 4 356 344 339 324 317 306 300 298 294 291 288 288 295 288 279 278 273 260 257 258 255 256 246 239 241 238 240
27 27 26 24 25 27 29 31 38 335 319 251 287 29 9 71 28 11 22 21 23 3 355 345 332 327 317 304 300 295 293 296 289 286 281 277 270 263 259 255 254 251 247 245 245 244 238
26 26 26 26 30 34 37 42 47 26 329 86 80 55 38 28 30 31 29 15 13 13 0 348 333 325 314 305 297 298 292 291 285 282 282 277 266 261 254 264 260 247 247 245 243 239 238
27 27 29 32 36 38 42 48 59 66 335 107 105 65 75 37 25 37 41 28 20 8 5 354 343 332 319 308 296 287 285 285 285 282 279 273 264 264 260 262 262 255 249 246 243 243 238
30 30 33 36 37 41 48 61 77 87 116 78 76 75 70 48 48 33 25 24 21 16 15 6 356 333 322 309 302 300 290 286 281 283 275 275 266 267 261 261 261 255 251 248 244 242 242
33 35 37 38 40 47 63 75 82 87 102 82 90 78 75 49 42 41 33 31 29 35 62 132 132 137 154 207 210 303 287 286 287 283 273 270 269 264 258 263 261 255 248 247 243 242 241
34 35 38 40 46 55 66 80 87 87 83 80 76 75 62 43 44 38 40 42 50 67 95 104 90 111 70 18 23 133 228 295 293 281 271 271 265 264 258 263 252 258 256 251 244 243 243
34 36 39 46 55 67 79 83 82 85 86 76 74 70 62 48 45 43 44 54 70 102 93 86 75 87 86 196 203 186 180 315 284 212 247 260 261 263 256 257 259 260 260 252 247 238 239
31 36 45 54 62 71 78 82 83 85 88 77 71 70 64 53 38 50 58 64 73 93 78 75 68 79 76 97 95 79 77 128 3 329 185 234 255 256 263 256 248 250 258 265 258 234 241
33 44 54 60 68 70 70 71 73 80 83 75 65 69 63 54 48 61 55 62 75 73 73 61 50 54 60 74 75 75 75 109 107 125 68 175 252 248 254 250 248 258 261 262 234 233 247
45 52 56 55 59 65 63 68 72 75 78 72 62 68 61 56 53 68 72 72 68 75 78 52 58 55 58 70 77 75 81 92 108 138 128 236 242 243 228 232 229 258 267 239 246 251 248
49 50 57 60 64 66 63 65 72 74 78 75 61 65 68 66 62 83 77 77 82 80 71 65 62 64 72 70 71 82 84 101 106 121 162 177 199 202 209 212 238 257 255 248 261 248 246